Total_Precipitation_Accumulation
0.73 0.75 0.69 0.74 0.71 0.69 0.73 0.75 0.65 0.64 0.63 0.54 0.50 0.54 0.62 0.60 0.71 0.77 0.90 1.15 1.52 1.89 1.93 1.74 1.54 1.37 1.33 1.39 1.42 1.48 1.48 1.50 1.61 1.78 1.68 1.54 1.53 1.41 1.31 1.53 1.72 1.90 2.00
0.63 0.74 0.73 0.78 0.70 0.72 0.81 0.75 0.69 0.72 0.72 0.62 0.55 0.59 0.62 0.63 0.70 0.79 0.87 1.07 1.28 1.69 2.06 2.10 1.96 1.75 1.56 1.55 1.62 1.73 1.60 1.49 1.52 1.68 1.65 1.48 1.41 1.32 1.25 1.38 1.69 1.78 1.97
0.62 0.75 0.79 0.78 0.75 0.79 0.82 0.86 0.87 0.82 0.72 0.65 0.61 0.59 0.60 0.62 0.72 0.75 0.78 0.98 1.02 1.09 1.53 2.05 2.27 2.19 1.94 1.86 1.81 1.75 1.69 1.58 1.49 1.54 1.62 1.45 1.28 1.19 1.20 1.26 1.43 1.43 1.63
0.67 0.87 0.92 0.82 0.87 0.98 1.02 1.06 1.03 0.94 0.85 0.81 0.81 0.77 0.68 0.66 0.72 0.76 0.77 0.83 0.88 0.82 0.92 1.20 1.53 1.80 2.02 2.07 2.06 1.90 1.80 1.68 1.46 1.49 1.51 1.44 1.17 1.06 1.05 1.08 1.17 1.23 1.31
0.89 1.06 1.13 1.04 1.02 1.18 1.16 1.06 1.10 1.13 1.05 1.05 1.01 1.00 0.88 0.79 0.79 0.75 0.85 0.96 0.98 0.95 0.94 0.81 0.95 1.14 1.55 1.92 2.15 2.23 2.00 1.89 1.62 1.55 1.53 1.35 1.17 1.06 1.01 0.99 1.01 1.14 1.17
1.13 1.28 1.38 1.34 1.30 1.43 1.43 1.32 1.42 1.44 1.35 1.39 1.25 1.16 1.09 1.04 1.01 0.98 0.98 1.06 1.14 1.05 1.07 0.95 0.90 0.77 0.94 1.36 1.82 2.20 2.12 2.02 1.85 1.65 1.59 1.28 1.14 1.03 0.97 0.98 0.97 1.04 1.10
1.53 1.64 1.61 1.82 1.90 1.88 1.89 1.83 1.95 1.99 1.74 1.56 1.85 1.84 1.45 1.16 1.05 1.09 1.16 1.19 1.26 1.29 1.26 1.17 1.09 0.91 0.79 0.88 1.16 1.79 2.05 2.06 1.92 1.76 1.75 1.46 1.20 1.07 1.00 1.03 1.04 1.05 1.14
1.87 1.79 1.87 2.08 2.13 2.25 2.35 2.19 2.32 2.41 2.10 1.80 2.20 2.66 2.20 1.77 1.18 0.96 1.08 1.19 1.34 1.40 1.34 1.18 1.16 1.09 0.97 1.00 0.86 1.17 1.68 1.99 1.97 1.88 1.84 1.66 1.38 1.22 1.07 1.08 1.13 1.14 1.12
2.26 2.15 2.11 2.23 2.25 2.33 2.53 2.57 2.53 2.64 2.57 2.23 2.19 2.64 2.56 2.23 1.78 1.22 1.10 1.19 1.35 1.46 1.51 1.46 1.29 1.23 1.15 1.21 1.19 1.00 1.15 1.50 1.84 1.92 1.88 1.75 1.59 1.41 1.22 1.13 1.14 1.12 1.03
2.43 2.38 2.33 2.39 2.40 2.35 2.48 2.58 2.56 2.78 2.97 2.70 2.43 2.20 2.12 2.16 2.18 1.75 1.33 1.26 1.41 1.49 1.57 1.49 1.44 1.48 1.51 1.47 1.41 1.11 0.98 1.11 1.46 1.85 1.96 1.95 1.82 1.64 1.41 1.30 1.35 1.23 1.12
2.16 2.13 2.24 2.39 2.41 2.38 2.40 2.59 2.70 2.89 2.89 2.81 2.68 2.54 2.36 2.16 1.84 1.94 1.82 1.58 1.56 1.47 1.56 1.67 1.67 1.70 1.70 1.79 1.81 1.35 1.06 0.99 1.20 1.57 1.96 2.09 2.06 1.98 1.74 1.53 1.46 1.46 1.41
1.99 1.90 2.00 2.10 2.18 2.23 2.22 2.28 2.44 2.59 2.77 2.91 2.84 2.67 2.58 2.46 2.28 2.17 1.90 1.75 1.81 1.64 1.53 1.55 1.61 1.64 1.79 1.88 1.76 1.61 1.20 1.02 1.09 1.18 1.45 1.87 2.14 2.28 2.16 2.00 1.82 1.68 1.67
1.90 1.85 1.82 1.89 1.96 2.00 2.10 2.27 2.26 2.29 2.47 2.68 2.68 2.62 2.61 2.40 2.33 2.38 2.20 1.87 1.79 1.67 1.56 1.49 1.45 1.50 1.57 1.69 1.75 1.67 1.25 1.15 1.10 1.06 1.00 1.09 1.44 1.89 2.25 2.35 2.31 2.09 2.07
1.50 1.50 1.57 1.66 1.80 1.89 1.99 2.13 2.18 2.13 2.21 2.28 2.30 2.44 2.52 2.40 2.20 2.15 2.18 2.27 2.03 1.78 1.60 1.45 1.38 1.38 1.44 1.48 1.61 1.63 1.21 1.09 1.05 1.00 0.94 0.82 0.89 1.13 1.52 1.86 1.98 2.09 2.28
1.11 1.17 1.25 1.39 1.58 1.71 1.77 1.87 2.01 2.00 2.06 2.06 2.13 2.20 2.22 2.27 2.12 1.96 1.92 2.02 2.16 1.96 1.80 1.61 1.40 1.23 1.31 1.33 1.40 1.22 1.16 1.10 0.99 0.92 0.88 0.81 0.75 0.79 0.99 1.31 1.43 1.37 1.46
1.01 1.11 1.14 1.21 1.34 1.44 1.53 1.70 1.84 1.91 1.94 1.91 1.90 1.97 2.03 2.08 2.08 2.04 2.01 2.00 2.00 1.95 1.85 1.66 1.39 1.13 1.20 1.27 1.41 1.23 1.26 1.33 1.12 0.97 0.86 0.86 0.83 0.78 0.82 0.95 1.04 0.93 0.85
1.01 1.07 1.12 1.16 1.19 1.28 1.33 1.44 1.59 1.73 1.76 1.77 1.67 1.70 1.81 1.87 2.04 2.08 2.03 1.99 1.99 1.91 1.78 1.70 1.45 1.23 1.22 1.30 1.37 1.29 1.32 1.32 1.16 1.07 0.98 0.93 0.84 0.88 0.90 0.93 1.00 0.92 0.77
0.87 0.98 1.11 1.09 1.08 1.13 1.21 1.33 1.42 1.47 1.57 1.54 1.46 1.48 1.58 1.65 1.78 1.91 2.01 1.92 1.93 1.89 1.88 1.83 1.61 1.38 1.30 1.33 1.39 1.35 1.26 1.25 1.23 1.21 1.10 1.04 0.96 0.89 0.94 0.92 1.02 1.07 0.98
0.80 0.93 1.08 1.21 1.12 1.01 1.11 1.21 1.25 1.28 1.28 1.24 1.23 1.28 1.33 1.39 1.52 1.64 1.75 1.84 1.86 1.79 1.89 1.87 1.66 1.43 1.31 1.30 1.33 1.32 1.29 1.35 1.25 1.26 1.22 1.12 1.07 1.00 1.00 0.99 0.98 1.07 1.06
0.63 0.70 0.85 0.97 1.03 0.99 0.95 0.97 1.00 1.15 1.15 1.06 0.99 0.99 1.01 1.04 1.17 1.30 1.40 1.56 1.72 1.85 1.93 1.95 1.80 1.52 1.34 1.32 1.36 1.42 1.43 1.37 1.38 1.26 1.26 1.24 1.23 1.18 1.12 1.11 1.01 0.99 1.04
0.50 0.58 0.75 0.92 0.98 0.98 1.00 1.00 0.93 0.97 1.03 1.04 0.98 0.88 0.81 0.81 0.92 1.01 1.10 1.36 1.56 1.72 1.87 1.92 1.84 1.67 1.50 1.41 1.36 1.36 1.46 1.57 1.57 1.41 1.35 1.26 1.23 1.10 1.01 1.04 1.03 0.96 0.94
0.45 0.49 0.59 0.75 0.91 0.88 1.03 1.08 1.00 0.91 0.92 0.93 0.93 0.92 0.91 0.86 0.75 0.72 0.79 0.95 1.20 1.40 1.59 1.71 1.73 1.60 1.45 1.41 1.46 1.46 1.45 1.52 1.59 1.45 1.41 1.48 1.41 1.27 1.13 1.02 1.08 1.01 0.94
0.43 0.45 0.52 0.65 0.79 0.92 0.95 0.85 0.93 0.93 0.90 0.92 0.90 0.89 0.92 0.91 0.95 0.85 0.79 0.77 0.81 0.99 1.23 1.45 1.47 1.43 1.50 1.44 1.40 1.36 1.33 1.34 1.36 1.37 1.39 1.44 1.44 1.32 1.15 1.09 1.18 1.12 1.05
0.42 0.44 0.48 0.53 0.60 0.79 0.84 0.74 0.92 0.95 0.96 0.96 0.95 0.96 1.01 1.04 1.00 1.10 1.07 0.98 0.91 0.90 1.00 0.95 1.05 1.32 1.43 1.45 1.46 1.47 1.51 1.42 1.36 1.34 1.30 1.34 1.29 1.24 1.13 1.06 1.12 1.06 0.99
0.43 0.42 0.42 0.44 0.47 0.56 0.65 0.63 0.77 0.91 1.01 1.01 0.91 0.91 0.97 1.01 1.20 1.24 1.15 1.12 1.05 0.99 1.12 1.13 1.14 1.20 1.28 1.29 1.31 1.40 1.47 1.42 1.36 1.30 1.23 1.15 1.11 1.20 1.25 1.15 1.11 1.17 1.10
0.49 0.44 0.40 0.39 0.42 0.45 0.57 0.47 0.59 0.77 0.94 1.05 0.98 0.93 1.08 1.05 1.06 1.02 0.98 1.17 1.14 1.04 0.95 0.91 0.92 0.97 0.99 1.05 1.14 1.18 1.32 1.35 1.28 1.29 1.19 1.14 1.10 1.17 1.24 1.17 1.05 1.02 1.06